User: anonymous   Login
Location: Campbell River
(50.0170°N, 125.2500°W)
Time: 10:52:21
(UTC-08:00)
Language:

SL-8 R/B - Orbit

View from above orbital plane
View from above orbital plane
View from above satellite
View from above satellite

Ground track
Ground track

The orbit data is extracted from the following two-line orbital elements,

1 31798U 07030B   14266.13032191  .12593471  30871-5  18310-3 0  2644
2 31798 098.1515 331.9531 0010888 265.2146 095.8118 16.48279032405031
Epoch (UTC): 23 September 2014 03:07:39
Eccentricity: 0.0010888
inclination: 98.1515°
perigee height: 137 km
apogee height: 151 km
right ascension of ascending node: 331.9531°
argument of perigee: 265.2146°
revolutions per day: 16.48279032
mean anomaly at epoch: 95.8118°
orbit number at epoch: 40503

The dashed part of the orbit path shows where the satellite is in the earth's shadow,  

DLR